| time (UTC) | temp C | wind direction | speed KPH | gust KPH | rain 1hr cm | rain 24hr cm | rain mn cm | humidity % | barometer mb |
| 20260504081815 | 12 | 22 | 11.3 | 11.3 | 0.00 | 0.00 | 0.00 | 93 | 1018.0 |
| 20260504080815 | 12 | 22 | 11.3 | 11.3 | 0.00 | 0.00 | 0.00 | 93 | 1018.0 |
| 20260504045803 | 12 | 22 | 11.3 | 11.3 | 0.00 | 0.00 | 0.00 | 94 | 1019.0 |
| 20260504044802 | 12 | 22 | 11.3 | 11.3 | 0.00 | 0.00 | 0.00 | 94 | 1019.0 |
| 20260504043802 | 13 | 22 | 11.3 | 12.9 | 0.00 | 0.00 | 0.00 | 94 | 1019.0 |
| 20260504042801 | 13 | 22 | 11.3 | 12.9 | 0.00 | 0.00 | 0.00 | 94 | 1019.0 |
| 20260504041801 | 13 | 22 | 11.3 | 12.9 | 0.00 | 0.00 | 0.00 | 93 | 1019.0 |
| 20260504040800 | 13 | 22 | 11.3 | 14.5 | 0.00 | 0.00 | 0.00 | 93 | 1019.0 |
| 20260504035759 | 13 | 22 | 11.3 | 12.9 | 0.00 | 0.00 | 0.00 | 94 | 1019.0 |
| 20260504034759 | 13 | 22 | 11.3 | 14.5 | 0.00 | 0.00 | 0.00 | 94 | 1019.0 |
| 20260504033758 | 13 | 36 | 8.0 | 8.0 | 0.00 | 0.00 | 0.00 | 93 | 1019.0 |
| 20260504032757 | 12 | 36 | 8.0 | 8.0 | 0.00 | 0.00 | 0.00 | 94 | 1018.0 |
| 20260504031757 | 12 | 36 | 8.0 | 8.0 | 0.00 | 0.00 | 0.00 | 93 | 1018.0 |
| 20260504030756 | 12 | 36 | 8.0 | 8.0 | 0.00 | 0.00 | 0.00 | 93 | 1018.0 |
| 20260504025756 | 12 | 36 | 8.0 | 8.0 | 0.00 | 0.00 | 0.00 | 93 | 1018.0 |
| 20260504024755 | 12 | 36 | 8.0 | 8.0 | 0.00 | 0.00 | 0.00 | 93 | 1018.0 |
| 20260504023754 | 12 | 36 | 8.0 | 8.0 | 0.00 | 0.00 | 0.00 | 93 | 1018.0 |
| 20260504022754 | 12 | 36 | 8.0 | 8.0 | 0.00 | 0.00 | 0.00 | 94 | 1018.0 |
| 20260504021753 | 12 | 36 | 8.0 | 8.0 | 0.00 | 0.00 | 0.00 | 94 | 1018.0 |
| 20260504020752 | 12 | 36 | 8.0 | 8.0 | 0.00 | 0.00 | 0.00 | 94 | 1018.0 |
| 20260504015752 | 12 | 36 | 8.0 | 8.0 | 0.00 | 0.00 | 0.00 | 94 | 1018.0 |
| 20260504014751 | 12 | 36 | 8.0 | 8.0 | 0.00 | 0.00 | 0.00 | 93 | 1018.0 |
| 20260504013750 | 12 | 36 | 8.0 | 8.0 | 0.00 | 0.00 | 0.00 | 93 | 1018.0 |
| 20260504012750 | 12 | 36 | 8.0 | 8.0 | 0.00 | 0.00 | 0.00 | 93 | 1017.0 |
| 20260504011749 | 12 | 36 | 8.0 | 8.0 | 0.00 | 0.00 | 0.00 | 93 | 1017.0 |
| 20260504010748 | 15 | 360 | 12.9 | 0.0 | 0.00 | 0.00 | 0.00 | 90 | 1017.0 |
| 20260504005748 | 15 | 360 | 12.9 | 0.0 | 0.00 | 0.00 | 0.00 | 90 | 1017.0 |
| 20260504004747 | 15 | 360 | 12.9 | 0.0 | 0.00 | 0.00 | 0.00 | 90 | 1017.0 |
| 20260504003747 | 15 | 360 | 12.9 | 0.0 | 0.00 | 0.00 | 0.00 | 90 | 1017.0 |
| 20260504002746 | 15 | 360 | 12.9 | 0.0 | 0.00 | 0.00 | 0.00 | 91 | 1016.0 |
| 20260504001745 | 15 | 360 | 12.9 | 0.0 | 0.00 | 0.00 | 0.00 | 91 | 1016.0 |
| 20260504000745 | 15 | 360 | 12.9 | 0.0 | 0.00 | 0.00 | 0.00 | 93 | 1016.0 |
| 20260503235744 | 15 | 360 | 12.9 | 0.0 | 0.00 | 0.00 | 0.00 | 92 | 1016.0 |
| 20260503234743 | 16 | 360 | 12.9 | 0.0 | 0.00 | 0.00 | 0.00 | 93 | 1015.0 |
| 20260503233743 | 16 | 360 | 12.9 | 0.0 | 0.00 | 0.00 | 0.00 | 93 | 1015.0 |
| 20260503232742 | 16 | 360 | 12.9 | 0.0 | 0.03 | 0.00 | 0.00 | 93 | 1015.0 |
| 20260503231741 | 16 | 360 | 12.9 | 0.0 | 0.00 | 0.00 | 0.00 | 93 | 1015.0 |
| 20260503230741 | 16 | 360 | 12.9 | 0.0 | 0.00 | 0.00 | 0.00 | 93 | 1015.0 |
| 20260503225740 | 16 | 360 | 12.9 | 0.0 | 0.15 | 0.00 | 0.00 | 93 | 1015.0 |
| 20260503224740 | 16 | 360 | 12.9 | 0.0 | 0.08 | 0.00 | 0.00 | 92 | 1015.0 |
| 20260503223739 | 16 | 360 | 12.9 | 0.0 | 0.08 | 0.00 | 0.00 | 92 | 1015.0 |
| 20260503222739 | 16 | 360 | 12.9 | 0.0 | 0.03 | 0.00 | 0.00 | 92 | 1015.0 |
| 20260503221738 | 16 | 360 | 12.9 | 0.0 | 0.03 | 0.00 | 0.00 | 91 | 1015.0 |
| 20260503220738 | 17 | 360 | 12.9 | 0.0 | 0.03 | 0.00 | 0.00 | 90 | 1015.0 |
| 20260503215737 | 17 | 360 | 12.9 | 0.0 | 0.00 | 0.00 | 0.00 | 88 | 1015.0 |
| 20260503214736 | 18 | 360 | 12.9 | 0.0 | 0.03 | 0.00 | 0.00 | 83 | 1015.0 |
| 20260503213736 | 19 | 360 | 14.5 | 0.0 | 0.00 | 0.00 | 0.00 | 74 | 1015.0 |
| 20260503212735 | 17 | 145 | 1.6 | 6.4 | 0.05 | 0.00 | 0.00 | 83 | 1015.0 |
| 20260503211735 | 17 | 145 | 1.6 | 6.4 | 0.00 | 0.00 | 0.00 | 84 | 1015.0 |
| 20260503210734 | 17 | 145 | 1.6 | 6.4 | 0.05 | 0.00 | 0.00 | 85 | 1015.0 |
| 20260503205734 | 18 | 145 | 1.6 | 6.4 | 0.00 | 0.00 | 0.00 | 81 | 1015.0 |
| 20260503204733 | 18 | 145 | 1.6 | 6.4 | 0.00 | 0.00 | 0.00 | 79 | 1015.0 |
| 20260503203733 | 18 | 145 | 3.2 | 6.4 | 0.00 | 0.00 | 0.00 | 75 | 1016.0 |
| 20260503202732 | 18 | 145 | 3.2 | 6.4 | 0.00 | 0.00 | 0.00 | 75 | 1016.0 |
| 20260503201732 | 22 | 140 | 17.7 | 0.0 | 0.00 | 0.00 | 0.00 | 53 | 1016.0 |
| 20260503200731 | 22 | 140 | 17.7 | 0.0 | 0.00 | 0.00 | 0.00 | 53 | 1016.0 |
| 20260503195731 | 21 | 140 | 17.7 | 0.0 | 0.00 | 0.00 | 0.00 | 55 | 1016.0 |
| 20260503194730 | 21 | 140 | 17.7 | 0.0 | 0.00 | 0.00 | 0.00 | 55 | 1016.0 |
| 20260503193729 | 21 | 140 | 17.7 | 0.0 | 0.00 | 0.00 | 0.00 | 54 | 1016.0 |
| 20260503192729 | 21 | 140 | 17.7 | 0.0 | 0.00 | 0.00 | 0.00 | 53 | 1016.0 |
| 20260503191728 | 21 | 140 | 17.7 | 0.0 | 0.03 | 0.00 | 0.00 | 52 | 1016.0 |
| 20260503190728 | 21 | 140 | 17.7 | 0.0 | 0.00 | 0.00 | 0.00 | 51 | 1016.0 |
| 20260503185726 | 21 | 140 | 17.7 | 0.0 | 0.03 | 0.00 | 0.00 | 50 | 1016.0 |
| 20260503184726 | 21 | 140 | 17.7 | 0.0 | 0.00 | 0.00 | 0.00 | 53 | 1016.0 |
| 20260503183725 | 21 | 140 | 17.7 | 0.0 | 0.03 | 0.00 | 0.00 | 57 | 1016.0 |
| 20260503182724 | 20 | 140 | 17.7 | 0.0 | 0.00 | 0.00 | 0.00 | 68 | 1016.0 |
| 20260503181724 | 20 | 140 | 17.7 | 0.0 | 0.00 | 0.00 | 0.00 | 69 | 1016.0 |
| 20260503180723 | 21 | 140 | 17.7 | 0.0 | 0.00 | 0.00 | 0.00 | 62 | 1016.0 |
| 20260503175723 | 20 | 136 | 1.6 | 4.8 | 0.00 | 0.00 | 0.00 | 64 | 1016.0 |
| 20260503174722 | 20 | 136 | 1.6 | 4.8 | 0.00 | 0.00 | 0.00 | 72 | 1017.0 |
| 20260503173722 | 20 | 136 | 1.6 | 4.8 | 0.00 | 0.00 | 0.00 | 70 | 1017.0 |
| 20260503172721 | 20 | 136 | 1.6 | 4.8 | 0.00 | 0.00 | 0.00 | 70 | 1017.0 |
| 20260503171720 | 20 | 136 | 1.6 | 4.8 | 0.00 | 0.00 | 0.00 | 69 | 1017.0 |
| 20260503170720 | 20 | 136 | 1.6 | 4.8 | 0.00 | 0.00 | 0.00 | 67 | 1017.0 |
| 20260503150710 | 15 | 136 | 1.6 | 4.8 | 0.00 | 0.00 | 0.00 | 84 | 1017.0 |
| 20260503130703 | 11 | 140 | 33.8 | 0.0 | 0.00 | 0.00 | 0.00 | 96 | 1018.0 |
| 20260503110655 | 12 | 140 | 33.8 | 0.0 | 0.00 | 0.00 | 0.00 | 93 | 1018.0 |